Wind_Speed
14 14 14 14 14 14 14 14 14 13 13 13 13 12 12 12 11 10 10 10 9 9 8 8 8 8 7 7 7 7 7 7 7 6 6 6 5 4 4 3 3 2 3
15 15 15 15 15 15 15 16 16 15 15 15 15 14 14 14 13 12 12 11 11 11 10 10 10 9 9 9 9 9 9 9 9 8 8 8 7 7 6 5 5 4 4
17 17 17 17 17 17 17 17 17 17 16 17 17 17 16 16 16 15 14 13 13 13 12 12 12 11 11 11 11 11 10 10 10 10 10 9 9 9 8 8 7 6 6
19 19 19 19 19 19 19 19 19 18 18 18 18 18 18 18 17 17 17 16 15 15 14 14 14 13 13 12 12 12 12 12 12 12 11 11 11 11 10 10 9 9 8
22 21 22 21 21 21 20 20 20 20 20 20 19 19 19 19 19 18 18 18 18 17 17 16 16 15 15 14 14 14 14 14 14 13 13 13 13 13 12 12 11 11 11
25 24 24 24 23 23 23 22 22 22 22 22 22 21 21 20 20 20 19 19 19 19 19 19 18 18 17 17 16 16 16 15 15 15 15 15 15 15 14 14 14 13 13
27 27 27 27 26 26 25 25 24 24 24 24 24 24 23 23 22 21 21 21 20 20 20 20 20 20 20 19 18 18 18 18 17 17 17 16 16 16 16 16 16 16 15
30 30 29 29 29 28 28 27 27 27 26 26 26 26 26 25 25 24 23 23 23 22 21 22 22 22 21 21 21 20 20 20 20 19 19 19 18 18 18 18 18 18 18
31 31 31 32 31 31 31 30 30 29 29 28 28 28 28 27 27 27 26 25 25 24 24 24 23 23 23 23 22 22 22 22 21 21 21 21 20 20 20 20 19 19 19
33 33 33 33 34 34 33 33 33 32 32 31 31 30 30 30 30 29 29 28 28 27 26 26 25 25 25 25 24 24 23 23 23 22 22 22 22 22 22 22 21 21 21
34 34 34 34 35 35 35 35 35 35 35 34 34 33 33 32 32 32 32 31 31 30 29 28 28 27 27 27 26 26 25 25 24 24 24 24 24 24 23 23 23 23 23
35 35 35 35 36 36 36 37 37 37 37 37 37 36 36 35 35 34 34 34 33 33 32 32 31 30 30 29 28 28 27 27 26 26 26 26 26 25 25 25 25 25 25
36 36 36 36 37 37 37 37 38 38 39 39 39 39 39 38 37 37 37 36 35 35 35 34 34 33 32 31 30 30 29 29 28 28 28 28 28 28 27 27 27 26 26
36 37 37 37 37 37 38 38 39 39 40 40 41 41 41 40 40 39 39 39 38 37 37 37 36 36 35 35 34 33 32 31 30 30 29 29 29 29 29 29 28 28 28
36 37 37 37 37 38 38 39 39 40 40 40 41 41 41 41 41 40 40 40 40 40 39 39 39 38 38 37 36 36 35 34 33 32 32 31 31 31 31 31 30 30 29
37 37 38 38 38 38 39 39 39 39 40 40 41 41 41 41 41 41 41 41 41 41 41 41 41 41 40 39 39 38 37 37 36 35 35 34 33 33 33 33 32 32 31
38 38 38 39 39 39 39 40 39 40 40 41 41 42 42 42 42 42 43 42 42 42 43 43 43 43 42 41 40 40 40 39 39 39 38 37 36 35 35 34 34 35 34
39 39 39 39 40 40 41 41 42 42 42 43 43 44 45 45 45 45 44 44 44 43 44 45 45 45 44 43 43 42 42 41 41 41 40 39 38 38 37 37 37 36 36
40 40 40 40 41 41 42 43 44 44 44 45 45 46 46 46 46 46 47 46 46 46 45 46 47 46 46 45 46 45 44 43 42 41 40 40 40 39 39 39 39 38 38
41 42 42 43 43 44 45 45 46 46 47 47 47 48 49 48 49 49 49 48 48 48 48 48 47 48 48 48 48 48 47 46 45 43 42 41 41 41 41 41 40 40 40
42 43 44 44 44 45 45 46 47 47 48 48 48 49 50 50 51 51 51 51 51 51 50 50 50 50 49 49 50 50 51 50 48 47 45 44 43 43 43 42 42 41 41
42 43 44 45 45 46 47 48 48 49 49 49 49 50 51 51 52 52 51 52 52 52 53 52 53 52 52 51 51 51 52 52 51 49 48 47 46 46 44 43 44 44 42
42 43 44 45 45 46 47 48 48 49 49 50 50 51 51 51 52 52 53 53 54 54 54 54 53 53 53 53 54 54 55 52 52 53 52 49 48 47 47 46 46 45 45
39 40 41 42 43 44 44 45 46 47 48 49 50 51 51 52 52 52 53 54 54 55 56 55 55 55 55 55 56 55 55 54 55 54 54 53 51 50 49 49 48 47 46
36 36 37 38 40 40 41 43 44 45 46 47 48 49 50 51 52 52 53 53 54 55 56 56 56 56 55 55 55 55 56 56 56 57 56 56 56 54 51 49 49 49 48
32 33 35 36 37 39 40 41 42 42 43 44 45 46 47 49 50 51 52 52 53 54 55 55 56 56 56 55 55 55 55 56 56 56 56 56 55 55 54 52 51 50 50
Wind_Direction
237 238 241 243 245 248 250 252 254 255 256 257 258 260 261 264 266 267 266 265 265 265 264 263 263 261 259 258 258 256 252 250 249 250 252 254 256 259 263 270 287 310 332
242 244 245 246 248 249 251 253 254 255 257 257 258 259 260 261 263 265 265 265 264 264 264 263 265 265 264 261 259 259 257 255 255 255 255 257 259 261 262 266 274 287 300
244 246 248 249 250 251 253 254 256 256 257 258 259 260 260 260 261 263 264 264 264 264 265 264 264 265 265 265 263 260 259 258 258 259 259 260 261 263 264 266 271 278 287
247 248 250 250 251 252 254 255 256 257 258 259 259 260 260 260 260 261 262 263 263 263 264 265 264 264 265 265 265 263 260 259 260 260 261 262 263 264 266 267 269 273 279
248 249 250 251 252 253 254 256 257 258 258 259 259 260 260 259 260 261 262 263 263 262 262 263 263 263 263 265 265 265 263 262 262 262 262 262 262 264 266 268 269 271 276
248 249 250 252 254 255 256 256 257 259 259 259 259 260 260 260 260 261 261 262 263 263 262 262 263 263 263 264 265 265 265 264 264 265 265 264 264 264 266 268 269 271 275
249 250 251 253 254 256 257 258 258 259 259 259 259 259 260 260 261 261 261 261 262 264 263 263 263 263 263 263 264 265 265 264 265 265 266 266 267 267 268 269 270 272 274
250 251 252 253 255 256 257 258 259 260 260 261 260 260 260 260 260 260 262 262 263 263 263 264 263 263 262 263 263 264 265 265 265 265 265 266 267 268 270 270 271 272 274
251 251 252 254 255 256 257 259 260 260 261 261 262 261 262 261 261 261 261 261 262 263 263 264 265 265 263 263 263 263 263 264 265 264 264 265 267 268 269 271 272 273 274
251 252 253 254 255 257 258 259 260 260 261 261 262 262 262 262 262 262 261 261 261 261 262 263 264 265 264 264 263 263 263 263 263 264 264 265 266 268 269 271 272 273 274
251 252 253 255 256 257 258 258 259 260 261 261 262 262 262 263 263 263 262 261 261 261 262 262 262 263 264 264 263 263 263 263 263 264 264 265 266 267 269 270 271 273 274
252 253 254 255 257 258 258 259 259 260 261 262 262 263 263 263 263 263 263 262 261 261 261 261 262 262 263 264 263 263 263 262 262 263 264 265 265 266 267 269 271 272 274
252 253 254 255 256 258 258 259 259 260 261 261 262 263 264 263 263 263 264 264 262 261 261 261 261 261 261 262 263 263 263 263 263 263 263 264 265 266 266 268 269 271 273
251 253 254 255 256 257 258 259 260 261 261 262 262 262 263 264 264 264 264 263 263 262 261 261 261 261 261 261 262 262 262 263 263 263 263 264 265 265 266 267 269 270 271
251 253 254 255 256 257 258 259 259 260 261 262 262 261 262 263 263 263 263 263 263 263 262 261 260 260 260 261 262 262 261 262 263 263 263 263 264 265 266 267 268 269 270
252 254 255 256 256 257 257 258 258 259 260 260 261 261 261 262 263 263 263 263 262 262 261 260 260 259 260 261 262 261 260 261 262 263 263 263 264 264 265 266 267 267 268
254 255 256 257 257 257 257 257 258 259 259 260 260 261 261 261 262 263 262 262 261 261 261 260 259 259 259 259 260 260 260 261 261 262 262 263 263 264 264 265 266 267 267
255 256 257 257 258 258 258 258 258 259 260 260 260 261 261 261 261 262 262 262 261 260 260 260 260 258 258 258 258 259 260 260 261 261 262 262 263 263 263 265 266 266 266
256 257 257 258 259 260 260 260 260 260 261 260 260 261 261 262 261 262 262 261 260 260 259 260 260 260 259 258 257 258 258 259 260 260 261 262 262 263 263 264 265 265 266
257 257 258 259 259 260 261 261 262 262 262 261 261 261 261 262 261 261 261 261 260 259 258 258 258 259 258 257 257 258 258 258 258 259 260 260 260 262 263 264 265 265 266
258 259 259 260 261 261 261 262 262 262 262 262 262 261 261 261 261 260 260 260 260 259 258 257 257 258 258 258 258 258 257 257 257 258 259 260 261 261 262 264 264 266 264
260 261 261 261 262 262 263 262 262 262 262 262 262 262 262 262 262 261 260 259 259 258 258 257 257 258 257 258 258 258 258 258 257 258 258 259 260 260 261 262 263 266 265
261 261 262 262 263 264 263 263 263 262 262 262 262 262 262 262 262 262 260 259 258 258 258 258 257 258 258 258 259 259 259 258 258 257 257 258 258 259 259 260 262 264 264
263 263 263 263 264 264 263 263 263 263 262 261 261 260 260 261 262 261 260 259 258 258 258 258 258 258 258 258 259 259 258 259 259 257 257 256 258 259 260 260 261 262 263
264 264 265 266 265 264 265 265 264 263 262 261 262 262 261 261 261 261 260 258 257 257 257 258 258 258 258 258 259 259 259 259 258 257 256 256 257 259 260 259 259 260 261
266 267 269 268 267 266 267 267 266 264 263 262 263 262 262 262 262 262 260 259 258 257 257 257 257 257 257 258 259 259 259 259 258 257 256 255 256 257 258 258 258 259 260
Height
5866 5867 5868 5870 5871 5872 5873 5875 5876 5876 5877 5878 5879 5880 5880 5881 5881 5882 5882 5882 5882 5882 5882 5882 5883 5882 5882 5883 5882 5882 5882 5882 5881 5881 5881 5881 5880 5880 5879 5878 5878 5877 5876
5864 5865 5866 5868 5869 5870 5871 5872 5873 5874 5875 5876 5877 5877 5878 5879 5879 5880 5880 5880 5881 5881 5881 5881 5881 5881 5882 5882 5882 5881 5881 5881 5881 5880 5880 5880 5879 5879 5878 5878 5877 5876 5876
5861 5862 5864 5865 5866 5867 5868 5869 5870 5872 5873 5873 5874 5875 5876 5877 5877 5878 5878 5879 5879 5879 5879 5879 5880 5880 5880 5880 5880 5880 5880 5880 5879 5879 5879 5879 5878 5878 5877 5877 5876 5876 5875
5858 5859 5860 5862 5863 5864 5865 5866 5868 5869 5870 5871 5872 5872 5873 5874 5875 5875 5876 5876 5877 5877 5877 5877 5878 5878 5878 5878 5878 5878 5878 5878 5878 5878 5877 5877 5877 5876 5876 5875 5875 5874 5874
5854 5855 5857 5858 5859 5861 5862 5863 5864 5865 5867 5868 5869 5869 5870 5871 5872 5872 5873 5874 5874 5874 5874 5875 5875 5875 5876 5876 5876 5876 5876 5876 5876 5876 5875 5875 5875 5875 5874 5874 5873 5873 5872
5849 5851 5853 5854 5855 5857 5858 5860 5861 5862 5863 5864 5865 5866 5867 5868 5868 5869 5870 5870 5871 5871 5871 5872 5872 5873 5873 5873 5873 5874 5874 5874 5874 5873 5873 5873 5873 5873 5872 5872 5871 5871 5870
5845 5846 5848 5850 5851 5853 5854 5855 5857 5858 5859 5860 5861 5862 5863 5864 5865 5866 5866 5867 5867 5868 5868 5869 5869 5869 5870 5870 5870 5871 5871 5871 5871 5871 5871 5871 5870 5870 5870 5869 5869 5869 5868
5839 5841 5843 5845 5846 5848 5849 5851 5852 5853 5854 5855 5857 5858 5859 5860 5860 5861 5862 5863 5863 5864 5864 5865 5865 5865 5866 5866 5867 5867 5867 5867 5867 5868 5867 5867 5867 5867 5867 5867 5866 5866 5865
5834 5836 5838 5839 5841 5842 5844 5846 5847 5848 5849 5851 5852 5853 5854 5855 5856 5857 5858 5858 5859 5860 5860 5861 5861 5861 5862 5862 5863 5863 5863 5864 5864 5864 5864 5864 5864 5864 5864 5863 5863 5863 5862
5828 5830 5832 5833 5835 5837 5838 5840 5841 5842 5844 5845 5846 5847 5848 5849 5850 5851 5852 5853 5854 5855 5855 5856 5856 5857 5857 5858 5858 5858 5859 5859 5859 5860 5860 5860 5860 5860 5860 5860 5859 5859 5859
5822 5824 5825 5827 5829 5830 5832 5833 5835 5836 5837 5839 5840 5841 5842 5843 5844 5845 5846 5847 5848 5849 5850 5850 5851 5851 5852 5853 5853 5854 5854 5854 5855 5855 5855 5855 5855 5855 5855 5855 5855 5855 5854
5815 5817 5819 5821 5822 5824 5825 5827 5828 5829 5831 5832 5833 5834 5836 5837 5838 5839 5840 5841 5842 5843 5844 5844 5845 5845 5846 5847 5847 5848 5849 5849 5850 5850 5850 5850 5850 5850 5851 5851 5850 5850 5850
5808 5810 5812 5814 5815 5817 5818 5820 5821 5822 5823 5825 5826 5827 5828 5829 5831 5832 5833 5834 5835 5836 5837 5837 5838 5839 5840 5840 5841 5842 5843 5843 5844 5844 5845 5845 5845 5845 5845 5845 5845 5845 5845
5801 5803 5805 5807 5808 5809 5811 5812 5813 5815 5816 5817 5818 5819 5820 5821 5823 5824 5825 5826 5827 5828 5829 5830 5831 5832 5833 5834 5834 5835 5836 5837 5838 5838 5838 5839 5839 5839 5839 5840 5840 5840 5839
5794 5796 5798 5799 5801 5802 5803 5804 5805 5806 5808 5808 5809 5810 5811 5813 5814 5815 5816 5817 5819 5820 5821 5822 5823 5824 5825 5826 5827 5828 5829 5830 5831 5831 5832 5832 5832 5833 5833 5833 5833 5833 5833
5787 5788 5790 5791 5792 5794 5795 5796 5797 5798 5799 5800 5801 5801 5803 5804 5805 5806 5807 5808 5810 5811 5812 5813 5815 5816 5817 5818 5819 5820 5821 5822 5823 5824 5824 5825 5825 5826 5826 5826 5826 5826 5826
5779 5780 5781 5783 5784 5785 5786 5787 5788 5789 5790 5791 5792 5792 5794 5795 5796 5797 5798 5799 5801 5801 5802 5804 5805 5806 5808 5809 5811 5811 5812 5814 5815 5816 5816 5817 5817 5818 5818 5819 5819 5819 5819
5770 5772 5773 5774 5775 5776 5777 5778 5779 5780 5780 5782 5782 5783 5784 5785 5786 5787 5788 5790 5791 5792 5793 5794 5795 5797 5798 5800 5801 5802 5803 5805 5806 5807 5807 5808 5809 5809 5810 5811 5811 5811 5811
5761 5763 5764 5765 5766 5767 5767 5768 5769 5770 5770 5771 5772 5773 5774 5774 5775 5777 5778 5779 5780 5781 5783 5784 5785 5787 5789 5790 5791 5792 5794 5795 5796 5797 5798 5799 5800 5801 5801 5802 5802 5802 5802
5752 5753 5754 5755 5756 5756 5757 5758 5758 5759 5759 5760 5761 5762 5762 5763 5764 5765 5767 5768 5769 5771 5772 5773 5775 5776 5778 5779 5780 5782 5784 5785 5786 5788 5789 5789 5790 5792 5792 5793 5793 5794 5794
5743 5743 5744 5745 5745 5746 5746 5746 5747 5747 5748 5748 5749 5749 5750 5751 5752 5753 5755 5756 5758 5759 5761 5763 5764 5765 5767 5768 5769 5771 5773 5774 5776 5777 5778 5780 5781 5782 5783 5783 5784 5784 5784
5733 5733 5734 5734 5735 5735 5735 5735 5735 5736 5736 5737 5737 5738 5738 5738 5739 5740 5742 5744 5745 5747 5749 5751 5752 5753 5755 5756 5757 5758 5760 5763 5765 5766 5767 5769 5771 5771 5772 5773 5774 5774 5775
5723 5723 5723 5723 5723 5723 5723 5723 5723 5723 5724 5724 5725 5725 5725 5726 5726 5727 5729 5730 5732 5734 5736 5738 5739 5741 5743 5744 5744 5746 5748 5751 5753 5754 5755 5757 5759 5760 5761 5762 5763 5763 5764
5712 5712 5712 5712 5712 5711 5711 5711 5711 5711 5712 5712 5712 5712 5713 5713 5713 5714 5715 5717 5718 5720 5722 5724 5726 5727 5729 5731 5732 5732 5734 5737 5739 5741 5743 5745 5746 5748 5749 5750 5752 5752 5753
5703 5703 5702 5702 5701 5700 5700 5699 5699 5699 5699 5699 5699 5700 5700 5700 5700 5701 5702 5703 5704 5706 5708 5710 5712 5713 5715 5717 5718 5719 5720 5722 5724 5727 5730 5732 5733 5735 5736 5738 5739 5740 5741
5694 5693 5692 5691 5691 5690 5689 5688 5688 5688 5687 5687 5687 5688 5688 5687 5687 5687 5688 5689 5690 5692 5694 5696 5697 5699 5701 5703 5704 5705 5706 5708 5711 5712 5715 5718 5720 5722 5723 5724 5726 5727 5728